This is the latest recevied weather packets stored in our database for station/object WB5CFT. If no packets are shown the sender has not sent any weather packets the latest 10 day(s).
| Time | Temp. | Humidity | Pressure | Rain* | Wind** | Luminosity | Snow |
|---|---|---|---|---|---|---|---|
| 1777729422 | 11.67° C | 85% | 1026 hPa | 0 mm | - | 111 W/m² | - |
| 1777729118 | 11.67° C | 86% | 1025.7 hPa | 0 mm | - | 106 W/m² | - |
| 1777728815 | 11.11° C | 85% | 1025.9 hPa | 0 mm | - | 84 W/m² | - |
| 1777728512 | 11.11° C | 86% | 1025.9 hPa | 0 mm | - | 67 W/m² | - |
| 1777728209 | 11.11° C | 86% | 1025.5 hPa | 0 mm | - | 66 W/m² | - |
| 1777727906 | 11.11° C | 86% | 1025.4 hPa | 0 mm | - | 67 W/m² | - |
| 1777727603 | 10.56° C | 87% | 1025.5 hPa | 0 mm | - | 64 W/m² | - |
| 1777727300 | 10.56° C | 87% | 1025.3 hPa | 0 mm | - | 51 W/m² | - |
| 1777726998 | 10.56° C | 88% | 1025.3 hPa | 0 mm | - | 38 W/m² | - |
| 1777726694 | 10.56° C | 88% | 1025.3 hPa | 0 mm | - | 36 W/m² | - |
| 1777726392 | 10.56° C | 88% | 1025.4 hPa | 0 mm | - | 39 W/m² | - |
| 1777726088 | 10° C | 88% | 1025.1 hPa | 0 mm | - | 34 W/m² | - |
| 1777725785 | 10° C | 88% | 1024.9 hPa | 0 mm | - | 23 W/m² | - |
| 1777725483 | 10° C | 88% | 1024.8 hPa | 0 mm | - | 16 W/m² | - |
| 1777725180 | 10° C | 89% | 1024.9 hPa | 0 mm | - | 13 W/m² | - |
| 1777724877 | 10° C | 89% | 1025 hPa | 0 mm | - | 9 W/m² | - |
| 1777724573 | 10° C | 89% | 1025 hPa | 0 mm | - | 6 W/m² | - |
| 1777724271 | 10° C | 89% | 1025 hPa | 0 mm | - | 4 W/m² | - |
| 1777723969 | 10° C | 89% | 1025 hPa | 0 mm | - | 2 W/m² | - |
| 1777723665 | 10° C | 89% | 1024.8 hPa | 0 mm | - | 1 W/m² | - |
| 1777723362 | 9.44° C | 89% | 1024.6 hPa | 0 mm | - | 1 W/m² | - |
| 1777723060 | 9.44° C | 89% | 1024.8 hPa | 0 mm | - | 0 W/m² | - |
| 1777722756 | 9.44° C | 90% | 1024.7 hPa | 0 mm | - | 0 W/m² | - |
| 1777722452 | 9.44° C | 90% | 1024.9 hPa | 0 mm | - | 0 W/m² | - |
| 1777722149 | 9.44° C | 90% | 1024.8 hPa | 0 mm | - | 0 W/m² | - |
* Rain latest hour (hover to see other rain measurements)
** Current wind speed in m/s (hover to see current wind gust speed)